Home > Weather > Derby > Past weeks

Flag for United Kingdom Weather for the Past 2 Weeks in Derby, England, United Kingdom

Now
37 °F

Clear.


Feels Like: 30 °F
Forecast: N/A
Wind: 12 mph from West

Location: East Midlands

Current Time: Feb 10, 2016 at 6:25:57 PM

Latest Report: Feb 10, 2016 at 5:50 PM


Visibility: 10 mi

Pressure: 29.53 "Hg

Humidity: 81%

Dew point: 32 °F

Location of DerbyLocation

Historic Weather in Derby — Graph

°F

Derby Temperature Yesterday

Maximum temperature yesterday: 43 °F (at 11:50 AM)
Minimum temperature yesterday: 36 °F (at 6:50 AM)
Average temperature yesterday: 39 °F

High & Low Weather Summary for the Past Weeks

 TemperatureHumidityPressure
High57 °F (Jan 27, 10:50 AM)100% (Jan 31, 9:20 AM)30.30 "Hg (Jan 31, 9:20 AM)
Low36 °F (Jan 28, 3:20 AM)51% (Feb 1, 3:20 PM)28.80 "Hg (Feb 8, 8:20 AM)
Average45 °F80%29.64 "Hg
* Reported Jan 26 5:20 PM — Feb 10 5:20 PM, Derby, Weather by CustomWeather, © 2016

Note: Actual official high and low records may vary slightly from our data, if they occured in-between our weather recording intervals... More about our weather records

Advertising

Derby Weather History for the Previous 24 Hours

 ConditionsComfort  
Time TempWeatherWind HumidityBarometerVisibility
5:20 PM
Wed, Feb 10
39 °FClear.8 mph70%29.50 "Hg10 mi
4:50 PM41 °FSunny.12 mph66%29.50 "Hg10 mi
4:20 PM43 °FPassing clouds.14 mph61%29.50 "HgN/A
3:50 PM43 °FPassing clouds.15 mph61%29.47 "HgN/A
3:20 PM45 °FPassing clouds.13 mph61%29.47 "HgN/A
2:50 PM45 °FScattered clouds.15 mph57%29.47 "HgN/A
2:20 PM45 °FPassing clouds.16 mph57%29.45 "HgN/A
1:50 PM46 °FScattered clouds.14 mph62%29.45 "HgN/A
1:20 PM46 °FScattered clouds.13 mph66%29.45 "HgN/A
12:50 PM46 °FScattered clouds.14 mph66%29.45 "HgN/A
12:20 PM45 °FPartly sunny.13 mph71%29.42 "HgN/A
11:50 AM45 °FScattered clouds.12 mph71%29.42 "HgN/A
11:20 AM45 °FScattered clouds.14 mph76%29.42 "HgN/A
10:50 AM45 °FPassing clouds.10 mph76%29.42 "HgN/A
10:20 AM43 °FPassing clouds.9 mph81%29.39 "HgN/A
8:50 AM39 °FSunny.7 mph93%29.36 "Hg10 mi
8:20 AM37 °FScattered clouds.8 mph93%29.36 "HgN/A
7:50 AM39 °FScattered clouds.8 mph93%29.33 "HgN/A
7:20 AM39 °FPassing clouds.9 mph93%29.30 "HgN/A
6:50 AM39 °FPassing clouds.9 mph93%29.30 "HgN/A
6:20 AM39 °FLight rain. Passing clouds.10 mph93%29.27 "HgN/A
5:50 AM39 °FPassing clouds.12 mph93%29.27 "HgN/A
5:20 AM39 °FPassing clouds.13 mph93%29.24 "HgN/A
4:50 AM39 °FPassing clouds.14 mph93%29.24 "HgN/A
4:20 AM39 °FPassing clouds.16 mph93%29.24 "HgN/A
3:20 AM39 °FLight rain. Partly cloudy.13 mph93%29.21 "Hg5 mi
2:50 AM39 °FOvercast.14 mph93%29.21 "HgN/A
2:20 AM39 °FPassing clouds.17 mph87%29.18 "HgN/A
1:50 AM39 °FPassing clouds.20 mph93%29.18 "HgN/A
1:20 AM39 °FPassing clouds.16 mph87%29.18 "HgN/A
12:50 AM39 °FPassing clouds.14 mph87%29.18 "HgN/A
12:20 AM39 °FPassing clouds.15 mph87%29.15 "HgN/A
11:20 PM
Tue, Feb 9
39 °FPassing clouds.14 mph87%29.15 "HgN/A
10:50 PM39 °FPassing clouds.13 mph81%29.12 "HgN/A
10:20 PM39 °FPassing clouds.14 mph81%29.12 "HgN/A
9:20 PM39 °FPassing clouds.15 mph81%29.09 "HgN/A
8:50 PM39 °FPassing clouds.14 mph81%29.09 "HgN/A
8:20 PM37 °FPassing clouds.14 mph87%29.09 "HgN/A
7:50 PM37 °FPassing clouds.13 mph87%29.06 "HgN/A
7:20 PM37 °FPassing clouds.16 mph87%29.06 "HgN/A
6:50 PM39 °FPassing clouds.16 mph81%29.06 "HgN/A
6:20 PM39 °FPassing clouds.15 mph81%29.03 "HgN/A
Weather by CustomWeather, © 2016

See weather overviewHow to use our weather pages